TimeCDT,TemperatureF,Dew PointF,Humidity,Sea Level PressureIn,VisibilityMPH,Wind Direction,Wind SpeedMPH,Gust SpeedMPH,PrecipitationIn,Events,Conditions,WindDirDegrees,DateUTC
12:52 AM,36.0,28.9,76,30.31,10.0,Calm,Calm,-,N/A,,Overcast,0,2012-10-28 05:52:00
1:52 AM,37.0,28.0,70,30.30,10.0,ENE,4.6,-,N/A,,Overcast,70,2012-10-28 06:52:00
2:52 AM,35.1,28.0,76,30.29,10.0,ENE,4.6,-,N/A,,Clear,70,2012-10-28 07:52:00
3:52 AM,34.0,27.0,75,30.29,10.0,ENE,4.6,-,N/A,,Clear,70,2012-10-28 08:52:00
4:52 AM,33.1,27.0,78,30.29,10.0,Calm,Calm,-,N/A,,Clear,0,2012-10-28 09:52:00
5:52 AM,28.0,24.1,85,30.31,10.0,Calm,Calm,-,N/A,,Clear,0,2012-10-28 10:52:00
6:52 AM,26.1,24.1,92,30.32,10.0,Calm,Calm,-,N/A,,Clear,0,2012-10-28 11:52:00
7:52 AM,27.0,24.1,89,30.35,10.0,WNW,3.5,-,N/A,,Clear,290,2012-10-28 12:52:00
8:52 AM,33.1,30.0,89,30.37,10.0,Calm,Calm,-,N/A,,Clear,0,2012-10-28 13:52:00
9:52 AM,41.0,30.9,67,30.36,10.0,Calm,Calm,-,N/A,,Clear,0,2012-10-28 14:52:00
10:52 AM,44.1,28.0,53,30.35,10.0,Calm,Calm,-,N/A,,Clear,0,2012-10-28 15:52:00
11:52 AM,46.9,28.9,50,30.35,10.0,Variable,6.9,-,N/A,,Clear,0,2012-10-28 16:52:00
12:52 PM,50.0,28.9,44,30.32,10.0,Variable,3.5,-,N/A,,Clear,0,2012-10-28 17:52:00
1:52 PM,52.0,28.9,41,30.28,10.0,East,3.5,-,N/A,,Clear,90,2012-10-28 18:52:00
2:52 PM,53.1,28.0,38,30.27,10.0,Calm,Calm,-,N/A,,Clear,0,2012-10-28 19:52:00
3:52 PM,54.0,27.0,35,30.25,10.0,Variable,4.6,-,N/A,,Clear,0,2012-10-28 20:52:00
4:52 PM,53.1,26.1,35,30.25,10.0,South,3.5,-,N/A,,Clear,170,2012-10-28 21:52:00
5:52 PM,51.1,30.0,44,30.25,10.0,SSE,4.6,-,N/A,,Clear,160,2012-10-28 22:52:00
6:52 PM,46.0,28.9,51,30.27,10.0,SE,4.6,-,N/A,,Clear,140,2012-10-28 23:52:00
7:52 PM,43.0,28.9,58,30.27,10.0,East,4.6,-,N/A,,Clear,100,2012-10-29 00:52:00
8:52 PM,42.1,30.0,62,30.27,10.0,ESE,5.8,-,N/A,,Mostly Cloudy,120,2012-10-29 01:52:00
9:52 PM,43.0,30.9,62,30.28,10.0,East,3.5,-,N/A,,Overcast,100,2012-10-29 02:52:00
10:52 PM,42.1,28.9,60,30.30,10.0,East,3.5,-,N/A,,Overcast,100,2012-10-29 03:52:00
11:52 PM,42.1,30.9,65,30.29,10.0,ESE,5.8,-,N/A,,Overcast,110,2012-10-29 04:52:00